DLH578 EDDM-FAOR

Flight info

Callsign DLH578
Flight time N/A
Altitude 37000
Route TURBU6E TURBU Y107 TOBSO DCT BAKOR DCT VESAL DCT LUMAV DCT TINTO DCT QUENN DCT ABDAB/N0481F380 UL44 TUC UW411 EBA UG362 BARKA/N0485F390 UM2 DJA UB730 DIR UA607 FL UM731 AMREN/N0481F410 UM731 RUDAS UQ25 ITROL UQ44 AVAGO AVAGO1C
Aircraft A359/H-SADE2E3GHIJ1J2J3J4J5M1P2RWXYZ/LB1D1

Departure

Time N/A
Airport Munich Airport (EDDM)

Arrival

Time 2026-05-01 10:35
Airport O.R. Tambo International Airport (FAOR)
Time Latitude Longitude Altitude Speed Heading
2026-05-01 10:06 -24.68702 27.09230 41191 ft 559 kts 141°
2026-05-01 10:06 -24.71607 27.12072 41198 ft 559 kts 141°
2026-05-01 10:07 -24.74506 27.14912 40873 ft 556 kts 141°
2026-05-01 10:07 -24.77408 27.17758 40109 ft 558 kts 141°
2026-05-01 10:07 -24.80282 27.20576 39301 ft 562 kts 141°
2026-05-01 10:07 -24.83210 27.23447 38442 ft 567 kts 141°
2026-05-01 10:08 -24.89109 27.29240 36870 ft 568 kts 141°
2026-05-01 10:08 -24.92058 27.32140 36162 ft 568 kts 141°
2026-05-01 10:08 -24.95002 27.35039 35427 ft 568 kts 141°
2026-05-01 10:09 -24.97950 27.37943 34813 ft 566 kts 141°
2026-05-01 10:09 -25.00934 27.40766 34240 ft 561 kts 148°
2026-05-01 10:09 -25.04293 27.42832 33607 ft 546 kts 164°
2026-05-01 10:09 -25.07884 27.43925 33071 ft 526 kts 180°
2026-05-01 10:10 -25.11467 27.44095 32533 ft 508 kts 190°
2026-05-01 10:10 -25.14981 27.43973 32028 ft 503 kts 190°
2026-05-01 10:10 -25.21898 27.43848 31032 ft 496 kts 189°
2026-05-01 10:11 -25.25381 27.43848 30523 ft 493 kts 188°
2026-05-01 10:11 -25.28755 27.43868 30005 ft 489 kts 188°
2026-05-01 10:11 -25.32140 27.43901 29471 ft 483 kts 188°
2026-05-01 10:11 -25.35489 27.43940 29003 ft 478 kts 187°
2026-05-01 10:12 -25.38796 27.43981 28507 ft 472 kts 187°
2026-05-01 10:12 -25.42062 27.44023 28026 ft 466 kts 187°
2026-05-01 10:12 -25.48468 27.44109 27088 ft 455 kts 186°
2026-05-01 10:13 -25.51619 27.44151 26617 ft 450 kts 186°
2026-05-01 10:13 -25.54688 27.44193 26209 ft 443 kts 186°
2026-05-01 10:13 -25.57727 27.44238 26066 ft 430 kts 186°
2026-05-01 10:14 -25.63542 27.44323 25733 ft 406 kts 186°
2026-05-01 10:14 -25.66333 27.44362 25557 ft 395 kts 186°
2026-05-01 10:14 -25.69062 27.44528 25312 ft 393 kts 177°
2026-05-01 10:14 -25.71662 27.45519 24981 ft 401 kts 155°
2026-05-01 10:15 -25.73820 27.47494 24639 ft 407 kts 133°
2026-05-01 10:15 -25.75416 27.50093 24150 ft 411 kts 123°
2026-05-01 10:15 -25.76838 27.52797 23744 ft 410 kts 123°
2026-05-01 10:15 -25.78272 27.55509 23377 ft 404 kts 123°
2026-05-01 10:16 -25.79716 27.58180 22934 ft 401 kts 124°
2026-05-01 10:16 -25.81162 27.60817 22496 ft 398 kts 124°
2026-05-01 10:16 -25.84043 27.66016 21628 ft 392 kts 125°
2026-05-01 10:17 -25.85463 27.68570 21318 ft 385 kts 125°
2026-05-01 10:17 -25.88250 27.73570 20438 ft 381 kts 125°
2026-05-01 10:17 -25.89640 27.76065 19997 ft 379 kts 125°
2026-05-01 10:18 -25.92406 27.81037 19179 ft 375 kts 124°
2026-05-01 10:18 -25.93775 27.83495 18774 ft 372 kts 124°
2026-05-01 10:18 -25.95133 27.85935 18352 ft 370 kts 124°
2026-05-01 10:19 -25.96481 27.88358 17961 ft 366 kts 124°
2026-05-01 10:19 -25.97790 27.90715 17613 ft 361 kts 124°
2026-05-01 10:19 -25.99100 27.93075 17267 ft 356 kts 124°
2026-05-01 10:20 -26.01658 27.97685 16580 ft 345 kts 124°
2026-05-01 10:20 -26.02902 27.99929 16426 ft 335 kts 124°
2026-05-01 10:20 -26.04107 28.02105 16308 ft 325 kts 124°
2026-05-01 10:20 -26.05272 28.04209 16167 ft 315 kts 124°
2026-05-01 10:21 -26.06405 28.06256 15961 ft 308 kts 124°
2026-05-01 10:21 -26.09403 28.09208 15455 ft 276 kts 175°
2026-05-01 10:21 -26.11255 28.09557 15212 ft 266 kts 182°
2026-05-01 10:22 -26.14830 28.09642 14729 ft 246 kts 204°
2026-05-01 10:22 -26.18002 28.08438 14271 ft 241 kts 211°
2026-05-01 10:23 -26.19618 28.07758 14201 ft 256 kts 211°
2026-05-01 10:23 -26.23323 28.07793 14206 ft 292 kts 160°
2026-05-01 10:23 -26.24954 28.09197 14204 ft 303 kts 131°
2026-05-01 10:24 -26.26150 28.13871 14248 ft 340 kts 79°
2026-05-01 10:24 -26.24426 28.18645 14226 ft 320 kts 51°
2026-05-01 10:25 -26.21116 28.21228 14127 ft 280 kts
2026-05-01 10:25 -26.17335 28.21279 13131 ft 275 kts 350°
2026-05-01 10:26 -26.15418 28.21166 12556 ft 277 kts 349°
2026-05-01 10:26 -26.13476 28.21044 12020 ft 280 kts 349°
2026-05-01 10:26 -26.09571 28.20780 11105 ft 279 kts 349°
2026-05-01 10:27 -26.05747 28.20522 10443 ft 272 kts 349°
2026-05-01 10:27 -26.02012 28.20287 9747 ft 266 kts 352°
2026-05-01 10:28 -26.00163 28.20388 9393 ft 267 kts
2026-05-01 10:28 -25.96545 28.21412 8851 ft 269 kts 10°
2026-05-01 10:28 -25.94749 28.22007 8631 ft 268 kts
2026-05-01 10:29 -25.91213 28.23170 8188 ft 266 kts 11°
2026-05-01 10:29 -25.89578 28.24171 8030 ft 275 kts 38°
2026-05-01 10:30 -25.88203 28.28114 7997 ft 286 kts 94°
2026-05-01 10:30 -25.90032 28.31496 7997 ft 243 kts 157°
2026-05-01 10:31 -25.93195 28.32017 8007 ft 227 kts 197°
2026-05-01 10:31 -25.96200 28.31081 7998 ft 224 kts 202°
2026-05-01 10:32 -25.99197 28.30154 7995 ft 226 kts 201°
2026-05-01 10:32 -26.00717 28.29693 7985 ft 226 kts 201°
2026-05-01 10:32 -26.03624 28.28798 7532 ft 210 kts 202°
2026-05-01 10:33 -26.06320 28.27962 7029 ft 189 kts 201°
2026-05-01 10:33 -26.08664 28.27243 6615 ft 161 kts 200°
2026-05-01 10:34 -26.09712 28.26930 6367 ft 152 kts 202°
2026-05-01 10:34 -26.10720 28.26626 6192 ft 149 kts 201°
2026-05-01 10:34 -26.11715 28.26284 5972 ft 150 kts 198°
2026-05-01 10:35 -26.13673 28.25696 5553 ft 143 kts 203°
2026-05-01 10:35 -26.14573 28.25401 5512 ft 121 kts 196°
2026-05-01 10:35 -26.15277 28.25183 5520 ft 93 kts 196°
2026-05-01 10:35 -26.15646 28.25067 5523 ft 39 kts 199°
2026-05-01 10:36 -26.15914 28.24851 5521 ft 14 kts 238°
2026-05-01 10:36 -26.15883 28.24795 5522 ft 9 kts 355°
2026-05-01 10:36 -26.15805 28.24813 5522 ft 15 kts 15°
2026-05-01 10:37 -26.15680 28.24850 5520 ft 22 kts 15°
2026-05-01 10:37 -26.15355 28.24953 5520 ft 25 kts 15°
2026-05-01 10:37 -26.15186 28.25006 5522 ft 25 kts 15°
2026-05-01 10:38 -26.15016 28.25059 5519 ft 27 kts 15°
2026-05-01 10:38 -26.14840 28.25113 5517 ft 27 kts 15°
2026-05-01 10:38 -26.14691 28.25159 5517 ft 21 kts 15°
2026-05-01 10:38 -26.14543 28.25205 5516 ft 23 kts 15°
2026-05-01 10:39 -26.14415 28.25148 5519 ft 19 kts 316°
2026-05-01 10:39 -26.14334 28.25059 5533 ft 13 kts 315°
2026-05-01 10:39 -26.14265 28.24984 5537 ft 17 kts 315°
2026-05-01 10:39 -26.14159 28.24869 5538 ft 23 kts 315°
2026-05-01 10:40 -26.14046 28.24745 5542 ft 23 kts 315°
2026-05-01 10:40 -26.13929 28.24619 5539 ft 24 kts 315°
2026-05-01 10:40 -26.13814 28.24494 5548 ft 22 kts 315°
2026-05-01 10:40 -26.13712 28.24382 5551 ft 20 kts 315°
2026-05-01 10:41 -26.13610 28.24272 5551 ft 21 kts 316°
2026-05-01 10:41 -26.13506 28.24161 5552 ft 21 kts 316°
2026-05-01 10:41 -26.13334 28.23977 5558 ft 17 kts 315°
2026-05-01 10:42 -26.13241 28.23875 5556 ft 20 kts 315°
2026-05-01 10:42 -26.13141 28.23764 5555 ft 21 kts 315°
2026-05-01 10:42 -26.13011 28.23740 5554 ft 20 kts 14°
2026-05-01 10:42 -26.12889 28.23774 5554 ft 16 kts
2026-05-01 10:43 -26.12830 28.23702 5556 ft 13 kts 281°
2026-05-01 10:43 -26.12819 28.23601 5556 ft 14 kts 276°
2026-05-01 10:43 -26.12808 28.23494 5556 ft 13 kts 276°
2026-05-01 10:43 -26.12809 28.23433 5556 ft 6 kts 250°
2026-05-01 10:44 -26.12842 28.23411 5557 ft 6 kts 190°
2026-05-01 10:44 -26.12884 28.23404 5555 ft 6 kts 186°
2026-05-01 10:44 -26.12890 28.23404 5556 ft 0 kts 186°
2026-05-01 10:44 -26.12890 28.23403 5556 ft 1 kts 186°
2026-05-01 10:45 -26.12898 28.23403 5557 ft 0 kts 186°